OPTUS D1

Last updated on Sun Apr 12 2026 00:02:51 GMT+0000 (Coordinated Universal Time)

1 29495U 06043B 26101.48586405 -.00000179 00000+0 00000+0 0 9998 2 29495 2.8621 80.4524 0003944 303.5723 142.5930 1.00273193 71453
UTC large
Height (km)
Speed (km/s)
/
Latitude / Longitude
Inclination (degrees)
Orbital Period (minutes)
Azimuth
Elevation
Range (km)
Doppler Factor

Next 0 passes for location: London (51.5072 / 0.1276)

Sorry there are no passes over London.
OPTUS D1